Tracking 30970 objects as of 3-Jul-2025
HD Live streaming from Space Station
objects crossing your sky now

COSMOS 839 DEB

Track COSMOS 839 DEB now!
10-day predictions


NORAD ID: 10454
Int'l Code: 1976-067AF
Perigee: 874.6 km
Apogee: 2,025.5 km
Inclination: 65.7 °
Period: 114.7 minutes
Semi major axis: 7821 km
RCS: 0.1521 m2 (medium)
Launch date: July 8, 1976
Source: Commonwealth of Independent States (former USSR) (CIS)
Launch site: PLESETSK MISSILE AND SPACE COMPLEX (PKMTR)

Note: This is SATELLITE DEBRIS
Your satellite tracking list
Your tracking list is empty




NASA's NSSDC Master Catalog

Two Line Element Set (TLE):
1 10454U 76067AF  25183.58434004  .00000045  00000-0  23324-3 0  9993
2 10454  65.6619 125.1455 0735816 345.7927  12.3326 12.55178314238501
Source of the keplerian elements: AFSPC